• In Deutschland
  • Länderverzeichnis
  • Für 7 Tage
  • Wassertemperatur
  • Satellitenkarten
  • Wetterkarte
  • Widgets
  • user-avatar
    Anmelden

    Stündliche Wetter Oria

    Heute, 16 Januar, Dienstag

    Zeit Temperatur Niederschläge Wind Luftdruck Luftfeuchtigkeit
    00:00 +9°C° 0 mm 2 m/S 754 mmHg 80%
    01:00 +10°C° 0 mm 1 m/S 754 mmHg 82%
    02:00 +8°C° 0 mm 2 m/S 754 mmHg 82%
    03:00 +8°C° 0 mm 2 m/S 753 mmHg 82%
    04:00 +8°C° 0 mm 3 m/S 753 mmHg 82%
    05:00 +8°C° 0 mm 3 m/S 753 mmHg 82%
    06:00 +7°C° 0 mm 4 m/S 752 mmHg 81%
    07:00 +7°C° 0 mm 4 m/S 752 mmHg 82%
    08:00 +9°C° 0 mm 5 m/S 752 mmHg 77%
    09:00 +10°C° 0 mm 5 m/S 752 mmHg 72%
    10:00 +11°C° 0 mm 6 m/S 752 mmHg 67%
    11:00 +13°C° 0 mm 6 m/S 751 mmHg 63%
    12:00 +13°C° 0 mm 6 m/S 751 mmHg 59%
    13:00 +14°C° 0 mm 6 m/S 751 mmHg 55%
    14:00 +14°C° 0 mm 6 m/S 750 mmHg 57%
    15:00 +13°C° 0 mm 6 m/S 750 mmHg 59%
    16:00 +13°C° 0 mm 5 m/S 749 mmHg 61%
    17:00 +13°C° 0 mm 5 m/S 749 mmHg 63%
    18:00 +12°C° 0 mm 5 m/S 749 mmHg 66%
    19:00 +12°C° 0 mm 5 m/S 748 mmHg 69%
    20:00 +12°C° 0 mm 5 m/S 748 mmHg 71%
    21:00 +10°C° 0 mm 5 m/S 748 mmHg 74%
    22:00 +10°C° 0 mm 5 m/S 748 mmHg 77%
    23:00 +10°C° 0 mm 5 m/S 748 mmHg 78%

    Morgen, 17 Januar, Mittwoch

    Zeit Temperatur Niederschläge Wind Luftdruck Luftfeuchtigkeit
    00:00 +10°C° 0 mm 5 m/S 747 mmHg 79%
    01:00 +10°C° 0 mm 5 m/S 747 mmHg 80%
    02:00 +10°C° 0 mm 5 m/S 747 mmHg 80%
    03:00 +10°C° 0 mm 6 m/S 746 mmHg 81%
    04:00 +10°C° 0 mm 6 m/S 745 mmHg 81%
    05:00 +10°C° 0 mm 7 m/S 745 mmHg 80%
    06:00 +11°C° 0 mm 7 m/S 745 mmHg 79%
    07:00 +11°C° 0 mm 7 m/S 745 mmHg 77%
    08:00 +12°C° 0 mm 8 m/S 744 mmHg 73%
    09:00 +13°C° 0 mm 9 m/S 744 mmHg 68%
    10:00 +15°C° 0 mm 9 m/S 744 mmHg 64%
    11:00 +16°C° 0 mm 9 m/S 743 mmHg 60%
    12:00 +16°C° 0 mm 10 m/S 743 mmHg 56%
    13:00 +17°C° 0 mm 10 m/S 742 mmHg 53%
    14:00 +16°C° 0 mm 10 m/S 742 mmHg 54%
    15:00 +14°C° 0 mm 10 m/S 742 mmHg 55%
    16:00 +14°C° 0 mm 10 m/S 741 mmHg 56%
    17:00 +13°C° 0,2 mm 10 m/S 742 mmHg 57%
    18:00 +11°C° 0,2 mm 11 m/S 742 mmHg 58%
    19:00 +9°C° 0,2 mm 12 m/S 743 mmHg 59%
    20:00 +9°C° 0,1 mm 12 m/S 743 mmHg 53%
    21:00 +9°C° 0,1 mm 13 m/S 744 mmHg 47%
    22:00 +8°C° 0,1 mm 14 m/S 745 mmHg 41%
    23:00 +8°C° 0,1 mm 13 m/S 746 mmHg 43%

    übermorgen, 18 Januar, Donnerstag

    Zeit Temperatur Niederschläge Wind Luftdruck Luftfeuchtigkeit
    00:00 +7°C° 0,1 mm 13 m/S 747 mmHg 44%
    01:00 +5°C° 0,1 mm 13 m/S 748 mmHg 46%
    02:00 +5°C° 0 mm 12 m/S 749 mmHg 43%
    03:00 +6°C° 0 mm 11 m/S 750 mmHg 41%
    04:00 +6°C° 0 mm 10 m/S 751 mmHg 38%
    05:00 +6°C° 0 mm 9 m/S 751 mmHg 40%
    06:00 +6°C° 0 mm 9 m/S 752 mmHg 42%
    07:00 +6°C° 0 mm 8 m/S 753 mmHg 44%
    08:00 +7°C° 0 mm 8 m/S 753 mmHg 41%
    09:00 +7°C° 0 mm 8 m/S 754 mmHg 38%
    10:00 +9°C° 0 mm 8 m/S 755 mmHg 36%
    11:00 +10°C° 0 mm 7 m/S 755 mmHg 33%
    12:00 +10°C° 0 mm 6 m/S 754 mmHg 29%
    13:00 +12°C° 0 mm 5 m/S 754 mmHg 26%
    14:00 +12°C° 0 mm 4 m/S 754 mmHg 28%
    15:00 +11°C° 0 mm 4 m/S 754 mmHg 29%
    16:00 +11°C° 0 mm 3 m/S 754 mmHg 31%
    17:00 +10°C° 0 mm 4 m/S 754 mmHg 36%
    18:00 +9°C° 0 mm 5 m/S 754 mmHg 41%
    19:00 +8°C° 0 mm 6 m/S 754 mmHg 45%
    20:00 +8°C° 0 mm 6 m/S 754 mmHg 49%
    21:00 +8°C° 0 mm 6 m/S 754 mmHg 52%
    22:00 +8°C° 0 mm 6 m/S 753 mmHg 55%
    23:00 +8°C° 0 mm 5 m/S 753 mmHg 57%

    19 Januar, Freitag

    Zeit Temperatur Niederschläge Wind Luftdruck Luftfeuchtigkeit
    00:00 +8°C° 0 mm 5 m/S 753 mmHg 58%
    01:00 +7°C° 0 mm 5 m/S 752 mmHg 60%
    02:00 +7°C° 0 mm 5 m/S 752 mmHg 64%
    03:00 +7°C° 0 mm 4 m/S 751 mmHg 68%
    04:00 +7°C° 0 mm 4 m/S 751 mmHg 71%
    05:00 +7°C° 0 mm 4 m/S 751 mmHg 73%
    06:00 +7°C° 0 mm 4 m/S 751 mmHg 75%
    07:00 +7°C° 0 mm 4 m/S 751 mmHg 77%
    08:00 +9°C° 0 mm 5 m/S 751 mmHg 74%
    09:00 +10°C° 0 mm 5 m/S 751 mmHg 70%
    10:00 +11°C° 0 mm 6 m/S 751 mmHg 66%
    11:00 +13°C° 0 mm 6 m/S 750 mmHg 64%
    12:00 +13°C° 0 mm 6 m/S 750 mmHg 63%
    13:00 +14°C° 0 mm 6 m/S 749 mmHg 61%
    14:00 +13°C° 0 mm 6 m/S 749 mmHg 63%
    15:00 +13°C° 0 mm 6 m/S 749 mmHg 65%
    16:00 +13°C° 0 mm 6 m/S 748 mmHg 67%
    17:00 +11°C° 0 mm 6 m/S 748 mmHg 71%
    18:00 +11°C° 0 mm 6 m/S 748 mmHg 74%
    19:00 +10°C° 0 mm 6 m/S 748 mmHg 78%
    20:00 +10°C° 0 mm 6 m/S 748 mmHg 78%
    21:00 +10°C° 0 mm 6 m/S 747 mmHg 77%
    22:00 +10°C° 0 mm 6 m/S 747 mmHg 77%
    23:00 +10°C° 0 mm 6 m/S 747 mmHg 76%

    20 Januar, Samstag

    Zeit Temperatur Niederschläge Wind Luftdruck Luftfeuchtigkeit
    00:00 +10°C° 0 mm 7 m/S 746 mmHg 76%
    01:00 +10°C° 0 mm 7 m/S 746 mmHg 75%
    02:00 +10°C° 0 mm 7 m/S 745 mmHg 75%
    03:00 +10°C° 0 mm 7 m/S 745 mmHg 75%
    04:00 +10°C° 0 mm 7 m/S 744 mmHg 75%
    05:00 +10°C° 0 mm 7 m/S 744 mmHg 74%
    06:00 +11°C° 0 mm 8 m/S 744 mmHg 73%
    07:00 +11°C° 0 mm 8 m/S 744 mmHg 73%
    08:00 +11°C° 0,1 mm 8 m/S 744 mmHg 71%
    09:00 +11°C° 0,1 mm 8 m/S 743 mmHg 68%
    10:00 +12°C° 0,1 mm 8 m/S 743 mmHg 66%
    11:00 +12°C° 0,2 mm 8 m/S 743 mmHg 66%
    12:00 +12°C° 0,2 mm 8 m/S 742 mmHg 66%
    13:00 +12°C° 0,2 mm 8 m/S 742 mmHg 66%
    14:00 +12°C° 0,6 mm 7 m/S 742 mmHg 68%
    15:00 +11°C° 0,6 mm 7 m/S 741 mmHg 70%
    16:00 +11°C° 0,6 mm 6 m/S 741 mmHg 72%
    17:00 +10°C° 0,2 mm 5 m/S 741 mmHg 68%
    18:00 +10°C° 0,2 mm 5 m/S 741 mmHg 65%
    19:00 +9°C° 0,2 mm 5 m/S 741 mmHg 61%
    20:00 +9°C° 0 mm 5 m/S 741 mmHg 58%
    21:00 +10°C° 0 mm 4 m/S 740 mmHg 56%
    22:00 +8°C° 0 mm 4 m/S 740 mmHg 53%
    23:00 +8°C° 0 mm 5 m/S 740 mmHg 54%

    21 Januar, Sonntag

    Zeit Temperatur Niederschläge Wind Luftdruck Luftfeuchtigkeit
    00:00 +8°C° 0 mm 5 m/S 739 mmHg 55%
    01:00 +7°C° 0 mm 6 m/S 739 mmHg 56%
    02:00 +7°C° 0,1 mm 6 m/S 738 mmHg 61%
    03:00 +7°C° 0,1 mm 6 m/S 738 mmHg 65%
    04:00 +7°C° 0,1 mm 6 m/S 737 mmHg 70%
    05:00 +6°C° 0,1 mm 7 m/S 737 mmHg 69%
    06:00 +6°C° 0,1 mm 8 m/S 737 mmHg 68%
    07:00 +6°C° 0,1 mm 8 m/S 736 mmHg 67%
    08:00 +6°C° 0,1 mm 9 m/S 737 mmHg 66%
    09:00 +7°C° 0,1 mm 10 m/S 737 mmHg 65%
    10:00 +7°C° 0,1 mm 11 m/S 737 mmHg 64%
    11:00 +7°C° 0,1 mm 11 m/S 737 mmHg 60%
    12:00 +8°C° 0,1 mm 12 m/S 737 mmHg 57%
    13:00 +8°C° 0,1 mm 12 m/S 737 mmHg 53%
    14:00 +8°C° 0 mm 12 m/S 738 mmHg 51%
    15:00 +7°C° 0 mm 12 m/S 738 mmHg 50%
    16:00 +7°C° 0 mm 13 m/S 738 mmHg 48%
    17:00 +5°C° 0 mm 12 m/S 739 mmHg 50%
    18:00 +5°C° 0 mm 12 m/S 739 mmHg 51%
    19:00 +4°C° 0 mm 12 m/S 740 mmHg 52%
    20:00 +4°C° 0 mm 12 m/S 740 mmHg 52%
    21:00 +4°C° 0 mm 13 m/S 741 mmHg 52%
    22:00 +3°C° 0 mm 13 m/S 741 mmHg 52%
    23:00 +3°C° 0 mm 13 m/S 742 mmHg 52%
    Mehr zeigen